ONEWEB-0161

Last updated on Sun Apr 25 2021 00:02:03 GMT+0000 (Coordinated Universal Time)

1 48053U 21025M 21114.58336806 -.01114548 00000-0 -63753-1 0 9999 2 48053 87.4031 339.4150 0008631 143.2444 321.9173 15.15493157 1783

Satellite not in orbit